GW4803 Weather Reports


Display with metric or nautical units.
time (UTC)temp
F
wind
direction
speed
MPH
gust
MPH
rain 1hr
in
rain 24hr
in
rain mn
in
humidity
%
barometer
mb
20260506051015 50 67 16.0 21.0 0.00 0.00 0.00 77 1009.1
20260506050514 50 49 14.0 22.0 0.00 0.00 0.00 77 1009.2
20260506045013 50 60 17.0 23.0 0.00 0.00 0.00 77 1008.9
20260506044512 50 56 16.0 23.0 0.00 0.00 0.00 77 1008.9
20260506044011 50 54 15.0 23.0 0.00 0.00 0.00 77 1008.8
20260506043515 50 63 17.0 23.0 0.00 0.00 0.00 77 1008.7
20260506043014 50 58 17.0 24.0 0.00 0.00 0.00 77 1008.6
20260506042510 50 42 18.0 24.0 0.00 0.00 0.00 78 1008.7
20260506042009 50 46 15.0 23.0 0.00 0.00 0.00 78 1008.7
20260506041509 50 52 14.0 23.0 0.00 0.00 0.00 78 1008.9
20260506041008 50 59 14.0 17.0 0.00 0.00 0.00 78 1008.6
20260506040508 50 37 11.0 21.0 0.00 0.00 0.00 78 1008.8
20260506040008 50 40 12.0 23.0 0.00 0.00 0.00 78 1008.7
20260506035510 50 50 14.0 23.0 0.00 0.00 0.00 78 1008.4
20260506035006 50 45 10.0 20.0 0.00 0.00 0.00 78 1008.8
20260506034517 50 56 14.0 18.0 0.00 0.00 0.00 78 1008.4
20260506034006 50 60 10.0 18.0 0.00 0.00 0.00 78 1008.7
20260506033505 50 53 14.0 18.0 0.00 0.00 0.00 78 1008.4
20260506033005 50 64 13.0 18.0 0.00 0.00 0.00 78 1008.5
20260506032505 50 54 12.0 18.0 0.00 0.00 0.00 79 1008.5
20260506032005 50 62 11.0 16.0 0.00 0.00 0.00 79 1008.4
20260506031502 50 57 12.0 16.0 0.00 0.00 0.00 79 1008.3
20260506031004 50 61 10.0 17.0 0.00 0.00 0.00 78 1008.3
20260506030559 50 57 11.0 17.0 0.00 0.00 0.00 78 1008.1
20260506025600 50 67 14.0 20.0 0.00 0.00 0.00 78 1007.8
20260506025100 50 66 12.0 20.0 0.00 0.00 0.00 78 1007.7
20260506024616 50 60 13.0 17.0 0.00 0.00 0.00 77 1007.6
20260506024055 50 61 14.0 17.0 0.00 0.00 0.00 77 1007.4
20260506023554 50 61 13.0 18.0 0.00 0.00 0.00 77 1007.3
20260506023054 50 45 14.0 18.0 0.00 0.00 0.00 76 1007.3
20260506022553 50 55 12.0 18.0 0.00 0.00 0.00 76 1007.4
20260506022052 51 43 12.0 17.0 0.00 0.00 0.00 76 1007.4
20260506021553 51 54 12.0 16.0 0.00 0.00 0.00 76 1007.3
20260506021051 51 61 10.0 16.0 0.00 0.00 0.00 76 1007.2
20260506020552 51 68 10.0 19.0 0.00 0.00 0.00 75 1007.1
20260506020048 51 59 14.0 19.0 0.00 0.00 0.00 75 1006.8
20260506015550 51 53 14.0 19.0 0.00 0.00 0.00 75 1006.3
20260506015046 51 51 15.0 23.0 0.00 0.00 0.00 75 1006.3
20260506014547 51 61 14.0 23.0 0.00 0.00 0.00 75 1006.0
20260506014047 51 57 13.0 23.0 0.00 0.00 0.00 75 1005.9
20260506013546 51 46 15.0 23.0 0.00 0.00 0.00 75 1006.0
20260506013059 51 57 14.0 21.0 0.00 0.00 0.00 75 1005.8
20260506012543 51 56 15.0 22.0 0.00 0.00 0.00 75 1005.8
20260506012043 51 49 15.0 22.0 0.00 0.00 0.00 76 1005.6
20260506011543 52 42 15.0 22.0 0.00 0.00 0.00 75 1005.6
20260506011041 52 63 16.0 23.0 0.00 0.00 0.00 75 1005.7
20260506010541 52 58 16.0 23.0 0.00 0.00 0.00 75 1005.5
20260506010039 52 55 17.0 26.0 0.00 0.00 0.00 74 1005.3
20260506005538 52 54 16.0 26.0 0.00 0.00 0.00 74 1005.4
20260506005037 52 49 16.0 25.0 0.00 0.00 0.00 74 1005.5
20260506004537 53 49 19.0 29.0 0.00 0.00 0.00 74 1005.6
20260506004036 53 28 19.0 29.0 0.00 0.00 0.00 73 1005.5
20260506003535 53 50 19.0 25.0 0.00 0.00 0.00 73 1005.6
20260506003038 53 49 19.0 28.0 0.00 0.00 0.00 73 1005.6
20260506002534 53 49 19.0 26.0 0.00 0.00 0.00 72 1005.7
20260506002034 53 42 18.0 26.0 0.00 0.00 0.00 72 1005.7
20260506001537 53 36 18.0 24.0 0.00 0.00 0.00 71 1005.6
20260506001032 54 49 18.0 24.0 0.00 0.00 0.00 71 1005.6
20260506000531 54 33 15.0 21.0 0.00 0.00 0.00 71 1005.6
20260506000032 54 46 15.0 21.0 0.00 0.00 0.00 70 1005.7
20260505235530 54 51 16.0 21.0 0.00 0.00 0.00 70 1005.7
20260505235029 54 32 16.0 20.0 0.00 0.00 0.00 69 1005.8
20260505234535 55 28 13.0 20.0 0.00 0.00 0.00 69 1005.9
20260505234029 55 32 13.0 19.0 0.00 0.00 0.00 70 1005.7
20260505233531 55 18 13.0 20.0 0.00 0.00 0.00 70 1005.7
20260505233028 55 46 13.0 20.0 0.00 0.00 0.00 70 1005.7
20260505232527 55 39 14.0 20.0 0.00 0.00 0.00 70 1005.8
20260505232027 55 53 13.0 20.0 0.00 0.00 0.00 70 1005.7
20260505231525 55 11 14.0 20.0 0.00 0.00 0.00 70 1005.6
20260505231026 55 19 13.0 20.0 0.00 0.00 0.00 70 1005.4
20260505230523 55 39 14.0 19.0 0.00 0.00 0.00 70 1005.2
20260505230038 55 27 14.0 20.0 0.00 0.00 0.00 70 1005.4
20260505225523 55 49 16.0 20.0 0.00 0.00 0.00 71 1005.2
20260505225023 55 49 14.0 19.0 0.00 0.00 0.00 71 1005.2
20260505224522 55 33 15.0 20.0 0.00 0.00 0.00 71 1005.3
20260505224023 55 42 15.0 21.0 0.00 0.00 0.00 71 1005.4
20260505223521 55 42 16.0 21.0 0.00 0.00 0.00 70 1005.1
20260505223022 55 34 14.0 21.0 0.00 0.00 0.00 70 1005.1
20260505222522 55 23 17.0 21.0 0.00 0.00 0.00 70 1004.8
20260505222020 55 48 16.0 21.0 0.00 0.00 0.00 70 1004.8
20260505221520 55 35 14.0 19.0 0.00 0.00 0.00 71 1004.9
20260505221019 55 31 13.0 21.0 0.00 0.00 0.00 71 1004.9
20260505220520 55 47 14.0 21.0 0.00 0.00 0.00 72 1005.0
20260505220021 55 53 17.0 21.0 0.00 0.00 0.00 71 1004.8
20260505215521 55 28 14.0 20.0 0.00 0.00 0.00 72 1004.9
20260505215019 55 30 14.0 23.0 0.00 0.00 0.00 72 1004.8
20260505214519 55 42 16.0 23.0 0.00 0.00 0.00 72 1004.9
20260505214018 55 34 14.0 21.0 0.00 0.00 0.00 73 1004.9
20260505213517 55 28 14.0 21.0 0.00 0.00 0.00 73 1005.0
20260505213017 55 36 13.0 20.0 0.00 0.00 0.00 73 1005.0
20260505212521 55 42 14.0 20.0 0.00 0.00 0.00 73 1005.2
20260505212018 55 34 12.0 20.0 0.00 0.00 0.00 73 1005.1
20260505211517 55 42 15.0 20.0 0.00 0.00 0.00 73 1004.9
20260505211016 55 30 14.0 23.0 0.00 0.00 0.00 73 1004.7
20260505210518 55 61 16.0 23.0 0.00 0.00 0.00 72 1004.5
20260505210016 56 28 16.0 22.0 0.00 0.00 0.00 72 1004.2
20260505205517 55 40 13.0 25.0 0.00 0.00 0.00 74 1004.1
20260505205015 55 19 15.0 25.0 0.00 0.00 0.00 74 1004.1
20260505204517 55 43 17.0 24.0 0.00 0.00 0.00 74 1004.3
20260505204014 55 25 18.0 24.0 0.00 0.00 0.00 74 1004.2
20260505203514 55 32 16.0 23.0 0.00 0.00 0.00 74 1004.2
20260505203014 55 15 18.0 23.0 0.00 0.00 0.00 73 1004.1
20260505202514 56 36 15.0 23.0 0.00 0.00 0.00 74 1004.2
20260505202013 55 40 17.0 24.0 0.00 0.00 0.00 75 1004.0
20260505201513 55 36 18.0 24.0 0.00 0.00 0.00 75 1004.2
20260505201013 55 33 17.0 22.0 0.00 0.00 0.00 75 1004.4
20260505200514 54 28 16.0 20.0 0.00 0.00 0.00 76 1004.5
20260505200026 54 35 16.0 21.0 0.00 0.00 0.00 77 1004.6
20260505195512 54 51 14.0 21.0 0.00 0.00 0.00 76 1005.2
20260505195112 55 52 11.0 20.0 0.00 0.00 0.00 77 1004.9
20260505194511 54 9 15.0 22.0 0.00 0.00 0.00 77 1004.3
20260505194012 54 34 17.0 22.0 0.00 0.00 0.00 77 1004.6
20260505193509 55 12 15.0 20.0 0.00 0.00 0.00 76 1005.1
20260505193009 55 24 13.0 22.0 0.00 0.00 0.00 75 1004.8
20260505192507 56 39 16.0 22.0 0.00 0.00 0.00 74 1004.6
20260505192004 56 25 16.0 24.0 0.00 0.00 0.00 72 1004.4
20260505191503 57 34 14.0 27.0 0.00 0.00 0.00 71 1003.9
20260505191001 58 31 18.0 27.0 0.00 0.00 0.00 70 1002.8
20260505190504 59 9 21.0 27.0 0.00 0.00 0.00 69 1002.9
20260505190000 58 17 17.0 25.0 0.00 0.00 0.00 70 1002.8
20260505185603 59 44 19.0 27.0 0.00 0.00 0.00 69 1003.1
20260505185100 58 33 20.0 27.0 0.00 0.00 0.00 69 1002.8
20260505184601 58 355 20.0 29.0 0.00 0.00 0.00 69 1003.0
20260505184100 58 32 20.0 29.0 0.00 0.00 0.00 69 1003.0
20260505183559 58 5 20.0 27.0 0.00 0.00 0.00 69 1003.2
20260505183107 58 25 20.0 29.0 0.00 0.00 0.00 69 1003.1
20260505182558 58 23 21.0 29.0 0.00 0.00 0.00 70 1003.0
20260505182058 58 346 21.0 26.0 0.00 0.00 0.00 69 1003.6
20260505181558 58 35 18.0 24.0 0.00 0.00 0.00 70 1003.6
20260505181058 58 360 17.0 28.0 0.00 0.00 0.00 70 1003.5
20260505180557 58 360 20.0 28.0 0.00 0.00 0.00 70 1003.3
20260505180058 58 342 18.0 28.0 0.00 0.00 0.00 71 1003.0
20260505175557 58 15 18.0 27.0 0.00 0.00 0.00 71 1002.9
20260505175057 58 18 18.0 27.0 0.00 0.00 0.00 70 1003.2
20260505174558 58 5 20.0 27.0 0.00 0.00 0.00 69 1003.2
20260505174055 59 360 19.0 27.0 0.00 0.00 0.00 69 1003.4
20260505173557 58 44 17.0 25.0 0.00 0.00 0.00 70 1003.3
20260505173052 58 21 17.0 27.0 0.00 0.00 0.00 71 1003.3
20260505172551 59 23 20.0 27.0 0.00 0.00 0.00 69 1003.0
20260505172050 59 40 20.0 25.0 0.00 0.00 0.00 67 1002.8
20260505171548 60 28 14.0 27.0 0.00 0.00 0.00 68 1002.6
20260505171149 60 5 17.0 27.0 0.00 0.00 0.00 67 1002.4
20260505170548 60 5 16.0 26.0 0.00 0.00 0.00 64 1002.5
20260505170047 60 5 17.0 25.0 0.00 0.00 0.00 65 1002.2
20260505165546 61 5 16.0 25.0 0.00 0.00 0.00 66 1002.2
20260505165045 60 5 17.0 28.0 0.00 0.00 0.00 67 1002.1
20260505164557 60 19 21.0 28.0 0.00 0.00 0.00 66 1001.9
20260505164044 61 9 18.0 26.0 0.00 0.00 0.00 66 1001.7
20260505163543 61 15 17.0 27.0 0.00 0.00 0.00 66 1001.7
20260505163051 61 15 18.0 27.0 0.00 0.00 0.00 68 1001.8
20260505162547 61 38 18.0 27.0 0.00 0.00 0.00 67 1002.0
20260505162042 61 351 18.0 25.0 0.00 0.00 0.00 67 1001.8
20260505161544 61 347 18.0 24.0 0.00 0.00 0.00 67 1001.6
20260505161041 61 355 18.0 23.0 0.00 0.00 0.00 68 1001.4
20260505160539 61 9 15.0 24.0 0.00 0.00 0.00 69 1001.4
20260505153047 61 44 21.0 28.0 0.00 0.00 0.00 70 1000.5
20260505152532 61 5 20.0 27.0 0.00 0.00 0.00 69 1000.4
20260505152032 61 351 21.0 28.0 0.00 0.00 0.00 69 1000.4
20260505151541 62 355 20.0 28.0 0.00 0.00 0.00 69 1000.2
20260505151030 62 355 19.0 29.0 0.00 0.00 0.00 69 1000.1
20260505150529 62 24 19.0 29.0 0.00 0.00 0.00 71 1000.0
20260505140518 64 355 20.0 30.0 0.00 0.00 0.00 75 998.2
20260505125002 63 344 9.0 18.0 0.00 0.00 0.00 61 996.6
20260505124502 63 329 10.0 18.0 0.00 0.00 0.00 56 996.6
20260505124100 63 320 12.0 15.0 0.00 0.00 0.00 59 996.6
20260505123559 63 296 8.0 10.0 0.00 0.00 0.00 65 996.4
20260505123106 64 282 7.0 9.0 0.00 0.00 0.00 64 996.1
20260505122559 65 283 5.0 9.0 0.00 0.00 0.00 61 995.8
20260505122055 65 255 4.0 9.0 0.00 0.00 0.00 60 995.7
20260505121554 66 279 6.0 9.0 0.00 0.00 0.00 60 995.6
20260505121053 66 264 6.0 9.0 0.00 0.00 0.00 60 995.5
20260505120552 66 250 3.0 6.0 0.00 0.00 0.00 59 995.4
20260505120053 67 231 4.0 8.0 0.00 0.00 0.00 58 995.2
20260505115555 67 229 4.0 11.0 0.00 0.00 0.00 58 995.1
20260505115052 67 231 5.0 11.0 0.00 0.00 0.00 58 995.2
20260505114552 67 208 5.0 8.0 0.00 0.00 0.00 58 995.1
20260505114055 68 217 3.0 7.0 0.00 0.00 0.00 58 995.0
20260505113556 68 225 4.0 10.0 0.00 0.00 0.00 57 995.0
20260505113058 68 209 7.0 12.0 0.00 0.00 0.00 57 994.9
20260505112552 68 198 7.0 12.0 0.00 0.00 0.00 59 994.8
20260505112051 68 215 6.0 12.0 0.00 0.00 0.00 60 994.8
20260505111555 67 196 8.0 12.0 0.00 0.00 0.00 61 994.8
20260505111051 67 215 5.0 11.0 0.00 0.00 0.00 62 994.8
20260505110550 67 213 5.0 11.0 0.00 0.00 0.00 62 994.7
20260505102047 66 205 6.0 8.0 0.00 0.00 0.00 68 994.1
20260505101546 66 198 5.0 8.0 0.00 0.00 0.00 67 994.0
20260505101048 67 177 5.0 8.0 0.00 0.00 0.00 67 994.0
20260505100545 67 180 6.0 8.0 0.00 0.00 0.00 66 994.0
20260505100049 68 167 7.0 9.0 0.00 0.00 0.00 63 994.0
20260505095543 68 169 6.0 8.0 0.00 0.00 0.00 62 994.0
20260505095038 69 172 6.0 9.0 0.00 0.00 0.00 60 994.0
20260505094539 69 174 7.0 9.0 0.00 0.00 0.00 58 993.9
20260505094038 69 186 7.0 11.0 0.00 0.00 0.00 58 993.9
20260505093538 69 182 7.0 14.0 0.00 0.00 0.00 58 993.9
20260505093039 69 194 8.0 11.0 0.00 0.00 0.00 59 993.8
20260505092537 69 190 8.0 10.0 0.00 0.00 0.00 61 993.8
20260505092035 69 198 6.0 10.0 0.00 0.00 0.00 65 993.8
20260505091550 69 184 7.0 10.0 0.00 0.00 0.00 65 993.7
20260505091037 69 182 8.0 12.0 0.00 0.00 0.00 67 993.8
20260505090532 69 173 8.0 12.0 0.00 0.00 0.00 68 993.7
20260505090049 69 175 9.0 14.0 0.00 0.00 0.00 68 993.8
20260505085534 70 171 9.0 14.0 0.00 0.00 0.00 68 993.9
20260505085030 70 178 10.0 14.0 0.00 0.00 0.00 69 993.9
20260505084536 70 176 7.0 14.0 0.00 0.00 0.00 69 994.0
20260505084028 70 186 8.0 14.0 0.00 0.00 0.00 70 993.9
20260505083528 70 193 8.0 13.0 0.00 0.00 0.00 70 993.9
20260505083039 70 174 9.0 13.0 0.00 0.00 0.00 70 993.8
20260505082527 70 200 10.0 13.0 0.00 0.00 0.00 70 993.8
20260505082029 70 174 9.0 12.0 0.00 0.00 0.00 70 993.8
20260505081538 70 178 10.0 14.0 0.00 0.00 0.00 70 993.9
20260505081025 70 171 7.0 12.0 0.00 0.00 0.00 70 993.9
20260505080527 70 175 9.0 12.0 0.00 0.00 0.00 72 993.9
20260505080036 70 180 8.0 12.0 0.00 0.00 0.00 72 994.0
20260505075522 70 166 8.0 13.0 0.00 0.00 0.00 72 994.1
20260505075021 71 156 8.0 13.0 0.00 0.00 0.00 72 994.1
20260505074521 71 174 9.0 14.0 0.00 0.00 0.00 72 994.2
20260505074020 71 167 10.0 14.0 0.00 0.00 0.00 73 994.4
20260505073521 71 178 10.0 16.0 0.00 0.00 0.00 73 994.3
20260505073018 71 171 11.0 16.0 0.00 0.00 0.00 73 994.4
20260505072517 70 175 10.0 14.0 0.00 0.00 0.00 74 994.4
20260505072016 70 173 9.0 11.0 0.00 0.00 0.00 74 994.5
20260505071524 70 174 8.0 13.0 0.00 0.00 0.00 74 994.6
20260505071016 71 174 10.0 14.0 0.00 0.00 0.00 74 994.5
20260505070516 71 157 10.0 14.0 0.00 0.00 0.00 74 994.5
20260505070015 71 175 9.0 13.0 0.00 0.00 0.00 74 994.7
20260505065514 71 157 10.0 13.0 0.00 0.00 0.00 73 994.7
20260505065012 71 174 8.0 14.0 0.00 0.00 0.00 73 994.8
20260505064513 71 182 9.0 13.0 0.00 0.00 0.00 73 995.0
20260505064011 71 169 9.0 14.0 0.00 0.00 0.00 73 994.9
20260505063509 71 163 8.0 12.0 0.00 0.00 0.00 73 995.0
20260505063008 71 165 8.0 10.0 0.00 0.00 0.00 73 995.0
20260505062508 72 171 9.0 14.0 0.00 0.00 0.00 72 995.0
20260505062006 72 174 8.0 18.0 0.00 0.00 0.00 71 995.0
20260505061515 73 161 10.0 20.0 0.00 0.00 0.00 70 995.1
20260505061007 73 172 12.0 19.0 0.00 0.00 0.00 70 995.1
20260505060506 73 171 11.0 19.0 0.00 0.00 0.00 70 995.2
20260505060002 73 209 11.0 16.0 0.00 0.00 0.00 70 995.2
20260505055501 73 176 12.0 19.0 0.00 0.00 0.00 70 995.2
20260505055001 73 172 13.0 19.0 0.00 0.00 0.00 69 995.2